Wind_Speed
15 15 15 14 14 13 13 12 13 12 12 12 11 10 10 10 9 9 8 7 7 7 6 5 5 4 4 3 3 3 3 3 3 3 3 3 3 3 3 4 4 4 4
17 17 17 16 16 15 15 14 14 13 13 12 12 12 11 11 10 10 9 8 8 7 7 6 6 5 4 4 3 3 3 2 2 2 2 2 2 2 3 3 3 3 4
20 20 19 18 18 17 17 16 15 15 14 13 13 13 13 12 11 11 10 10 9 8 7 7 7 6 5 5 4 3 3 2 2 1 1 1 1 2 2 2 2 2 2
23 22 21 21 20 19 19 18 18 17 16 15 14 14 14 14 13 12 11 11 10 9 9 8 8 7 7 6 5 4 4 3 3 2 2 1 1 1 1 1 1 1 2
25 24 24 23 22 21 21 20 19 19 18 17 16 16 15 15 14 14 13 12 11 11 10 9 9 8 8 7 6 6 5 5 4 3 3 2 2 1 1 0 0 1 2
27 27 26 25 24 23 23 22 21 21 20 19 18 17 16 16 16 15 14 13 13 12 12 11 10 10 9 8 8 7 7 6 5 5 4 4 3 2 2 1 1 1 2
29 29 28 27 26 25 25 24 23 23 22 21 20 19 18 17 17 17 15 15 14 14 13 12 12 11 11 10 10 9 8 7 7 6 5 5 5 4 3 2 2 2 2
31 31 31 30 28 28 27 26 25 25 24 23 22 21 20 19 19 18 17 16 15 15 14 14 13 13 12 11 11 10 10 9 7 7 7 7 6 5 4 4 3 3 3
33 33 33 32 31 30 29 28 28 27 26 25 24 23 22 21 20 20 19 18 17 16 16 16 15 14 13 13 12 11 10 10 9 8 8 8 8 7 6 5 5 4 4
35 35 35 34 33 33 32 31 30 29 28 27 26 25 24 23 23 21 20 20 19 18 17 17 16 16 15 14 14 13 12 11 10 10 9 9 9 8 8 7 7 6 5
35 36 37 35 34 34 34 33 32 31 30 29 28 27 26 26 25 24 22 21 21 20 19 18 18 17 16 16 15 14 14 12 11 11 11 10 10 9 9 8 8 7 7
36 36 37 36 36 36 36 35 34 34 32 31 30 29 28 27 27 26 24 23 22 21 21 20 19 19 18 17 17 16 15 14 14 13 12 12 11 10 10 10 10 9 8
37 37 37 37 37 38 37 37 37 36 35 33 32 30 29 28 28 27 26 25 24 23 22 21 20 20 19 19 18 17 16 16 15 14 14 13 13 12 12 11 11 10 10
38 38 38 38 37 38 39 39 38 38 37 35 34 32 31 30 29 29 28 27 26 25 24 23 22 21 21 21 20 19 18 17 16 16 15 15 14 13 13 12 11 11 11
39 40 40 39 39 39 40 40 39 39 39 38 36 35 34 33 31 30 30 29 28 27 26 25 24 23 22 22 22 21 20 19 18 16 16 15 15 14 14 13 13 12 11
40 41 42 42 41 40 41 41 41 40 40 39 39 38 36 35 34 32 31 31 30 29 28 27 26 25 24 23 23 23 22 21 19 18 17 16 16 15 15 14 14 13 12
39 41 42 43 43 42 42 42 42 42 41 40 40 40 38 36 35 34 33 32 32 30 29 29 28 27 26 25 25 25 24 23 22 20 19 19 18 18 17 16 15 14 14
40 41 42 43 44 43 43 44 44 44 43 42 41 41 40 39 38 36 35 34 33 33 31 30 30 29 29 27 27 26 26 26 25 23 22 20 20 19 19 18 17 16 15
39 41 42 43 44 44 44 45 45 45 44 44 43 42 42 41 40 39 37 36 36 35 34 33 32 31 30 30 29 28 28 28 27 26 25 24 22 21 20 20 19 18 17
39 40 42 42 43 44 45 46 46 46 46 45 45 44 43 43 42 41 39 38 37 37 36 35 34 33 33 32 31 30 30 29 29 28 27 26 25 24 23 22 22 21 20
39 40 41 41 42 44 45 46 46 47 47 47 46 45 44 44 43 42 41 39 38 38 38 37 36 36 35 34 33 33 32 32 31 29 29 28 27 26 25 24 24 23 23
39 39 40 41 42 43 45 46 47 47 47 48 47 46 45 45 45 44 43 41 39 38 39 38 38 38 37 36 35 35 34 34 33 32 31 30 29 28 27 26 26 25 25
39 39 40 41 42 43 44 45 47 48 48 48 48 47 46 46 46 46 44 43 42 41 40 40 40 40 39 38 38 37 36 36 35 35 34 33 31 30 29 28 28 28 27
40 40 40 41 42 42 43 45 46 48 49 48 48 48 47 48 47 47 46 44 42 42 41 40 40 41 40 40 39 39 38 37 37 37 36 35 34 33 31 31 30 30 29
40 41 41 42 42 43 43 44 46 48 49 49 49 49 49 49 49 48 47 47 45 43 42 42 41 41 41 41 40 40 39 38 38 38 37 36 36 35 34 33 32 31 31
40 40 41 42 42 43 44 44 46 47 49 50 50 51 50 50 50 49 49 47 47 45 44 43 42 42 41 41 40 40 40 39 39 39 38 38 38 36 36 35 34 33 33
Wind_Direction
251 249 246 245 243 241 240 236 227 226 225 222 221 219 214 209 207 206 204 200 196 192 189 184 177 173 166 160 154 143 130 126 114 106 94 87 80 73 69 65 63 62 62
252 250 247 245 243 241 240 239 235 230 229 227 224 220 217 214 212 211 209 208 207 203 199 194 189 186 182 178 176 165 150 147 138 125 111 99 91 85 77 70 64 61 59
252 250 247 245 243 242 241 239 236 232 231 230 228 224 221 220 217 214 214 214 215 211 207 205 203 202 199 197 195 193 189 189 185 174 172 149 123 108 92 75 63 54 48
251 249 247 245 242 241 241 239 238 235 233 233 232 229 227 225 222 220 220 218 218 217 215 216 216 214 209 210 211 213 212 212 219 222 220 203 176 155 104 61 46 29 33
250 247 245 244 242 241 240 239 239 237 235 234 233 232 230 229 228 226 226 225 224 224 222 221 223 223 217 217 220 222 222 222 225 227 225 220 220 226 254 294 29 6 6
248 246 244 242 241 240 239 239 238 237 235 235 234 235 234 232 230 229 230 233 232 230 229 228 227 228 227 224 224 225 229 231 231 232 232 231 238 246 256 257 274 312 328
248 245 244 242 240 239 238 238 238 237 237 236 235 235 236 235 232 230 232 235 236 233 231 231 229 230 230 230 230 230 234 235 235 235 234 237 240 243 250 258 269 278 295
247 244 243 242 241 239 238 236 237 237 237 237 236 236 236 236 235 234 235 236 236 235 233 232 232 231 231 231 232 233 236 236 238 238 236 238 240 243 247 257 260 266 275
248 245 243 241 240 240 239 237 236 237 237 237 237 237 237 236 236 236 236 237 238 238 237 235 235 234 233 233 233 235 237 239 242 241 238 240 244 244 246 251 253 259 265
247 245 243 241 240 239 239 238 238 237 237 236 236 238 238 237 237 237 237 237 239 239 240 238 236 236 236 235 234 236 237 239 241 244 243 244 245 244 248 252 256 258 262
248 245 243 243 240 238 238 238 238 237 237 237 237 238 238 238 238 238 237 238 239 240 240 239 237 236 237 236 236 236 237 239 241 245 247 247 248 247 249 254 258 259 262
248 245 243 243 240 238 238 237 237 237 236 237 237 238 239 239 238 239 238 237 238 238 239 240 239 237 237 237 237 237 237 239 243 246 247 249 250 250 251 254 256 258 260
247 244 243 242 241 239 237 237 237 237 236 237 238 238 239 240 239 238 237 237 237 238 239 240 240 240 238 237 238 238 237 239 243 246 246 247 250 253 252 253 255 256 255
247 244 243 242 241 240 238 237 237 237 236 237 238 238 238 239 239 239 238 237 237 238 239 239 239 241 240 239 239 239 238 239 242 243 244 245 248 251 251 252 253 254 255
248 245 244 242 241 241 239 237 237 237 236 237 238 238 237 237 238 240 240 239 239 239 240 240 240 241 242 241 241 240 239 239 241 241 243 244 246 247 248 250 250 252 254
248 247 245 243 242 241 240 239 237 237 237 237 237 237 238 238 238 239 241 240 240 240 239 240 240 241 241 242 241 240 240 240 241 242 242 244 246 247 249 250 249 251 253
248 246 245 243 242 241 240 239 237 237 237 238 238 237 237 238 238 239 241 242 240 240 240 241 241 241 242 242 243 242 241 241 242 243 243 245 247 248 249 249 249 251 254
248 246 244 242 242 241 240 239 238 237 237 238 238 238 239 238 238 239 240 243 242 241 241 242 241 242 243 244 244 243 243 243 243 244 245 246 247 247 247 248 248 251 255
248 246 244 243 242 240 240 239 238 237 237 238 239 239 239 239 239 240 242 243 243 242 241 242 243 242 243 244 245 245 245 244 243 244 245 246 247 246 246 246 248 251 253
248 246 244 243 242 241 240 239 238 237 237 237 238 240 239 239 240 241 242 243 243 242 242 242 243 244 244 244 246 246 245 245 245 244 245 247 247 246 246 247 248 251 254
248 246 244 243 242 241 240 239 238 237 237 237 238 240 240 239 240 240 242 243 244 243 242 242 243 244 244 245 247 246 244 245 245 244 246 247 248 247 248 248 249 251 254
250 248 245 244 243 242 240 239 238 238 237 238 239 240 241 241 240 240 242 242 242 242 242 242 242 244 244 245 246 246 246 245 246 245 246 246 247 248 249 250 251 252 254
250 249 247 245 244 243 242 241 239 238 238 238 239 239 240 241 241 240 241 240 242 243 243 243 243 244 245 245 246 248 248 246 246 246 245 246 248 249 250 251 252 253 254
250 249 248 247 245 244 243 243 241 239 238 238 238 239 239 240 241 240 239 240 242 244 244 244 244 244 245 245 246 247 248 248 247 246 245 246 248 249 250 251 252 253 254
250 249 249 247 246 245 245 245 243 241 239 238 238 238 239 240 240 239 240 242 243 245 245 245 244 244 246 246 245 246 248 249 248 247 247 246 247 248 250 251 251 253 254
252 251 249 248 247 246 246 245 243 241 240 238 238 238 238 239 240 239 240 242 244 245 245 243 244 244 245 245 245 246 247 249 249 248 248 248 247 247 250 253 253 253 254
Height
5840 5841 5842 5843 5844 5844 5845 5845 5846 5847 5847 5848 5849 5850 5851 5851 5852 5853 5853 5854 5855 5855 5856 5857 5857 5858 5858 5859 5859 5859 5860 5860 5860 5860 5860 5861 5861 5861 5861 5861 5861 5860 5860
5837 5838 5839 5840 5841 5842 5843 5844 5845 5845 5846 5847 5848 5849 5850 5850 5851 5852 5852 5853 5854 5855 5855 5856 5857 5858 5858 5858 5859 5859 5860 5860 5860 5860 5861 5861 5861 5861 5861 5861 5861 5861 5861
5834 5835 5836 5837 5839 5840 5841 5842 5843 5843 5844 5845 5846 5847 5848 5849 5850 5850 5851 5852 5853 5854 5854 5855 5856 5857 5858 5858 5858 5859 5860 5860 5860 5861 5861 5861 5861 5861 5861 5861 5861 5861 5861
5830 5831 5833 5834 5835 5837 5838 5839 5840 5841 5842 5843 5844 5845 5846 5847 5848 5849 5850 5851 5852 5852 5853 5854 5855 5856 5857 5857 5858 5859 5859 5860 5860 5860 5861 5861 5861 5861 5861 5861 5861 5861 5861
5825 5827 5828 5830 5832 5833 5834 5836 5837 5838 5840 5841 5842 5843 5844 5845 5846 5847 5848 5849 5850 5851 5852 5853 5854 5855 5856 5856 5857 5858 5858 5859 5860 5860 5860 5861 5861 5861 5861 5861 5861 5861 5861
5820 5822 5823 5825 5827 5829 5831 5832 5834 5835 5837 5838 5839 5841 5842 5843 5844 5845 5846 5847 5848 5849 5851 5852 5853 5854 5854 5855 5856 5857 5858 5858 5859 5859 5860 5860 5860 5860 5861 5861 5861 5861 5861
5814 5816 5818 5820 5822 5824 5826 5828 5830 5831 5833 5835 5836 5838 5839 5841 5842 5843 5844 5845 5846 5847 5849 5850 5851 5852 5853 5854 5855 5855 5856 5857 5858 5858 5859 5859 5860 5860 5860 5860 5860 5860 5860
5808 5810 5812 5814 5817 5819 5821 5823 5825 5827 5829 5831 5833 5834 5836 5838 5839 5840 5841 5843 5844 5845 5847 5848 5849 5850 5851 5852 5853 5854 5855 5856 5857 5857 5858 5858 5859 5859 5859 5859 5860 5860 5860
5800 5803 5805 5808 5810 5813 5815 5817 5820 5822 5824 5827 5828 5831 5832 5834 5836 5837 5839 5840 5841 5843 5844 5845 5846 5848 5849 5850 5851 5852 5853 5854 5855 5856 5857 5857 5857 5858 5858 5858 5859 5859 5859
5793 5795 5798 5800 5803 5806 5809 5812 5814 5817 5819 5822 5824 5826 5828 5830 5832 5834 5835 5837 5838 5840 5841 5842 5844 5845 5846 5847 5849 5850 5851 5852 5853 5854 5855 5855 5856 5856 5857 5857 5857 5858 5858
5785 5787 5790 5793 5795 5799 5802 5805 5808 5811 5814 5816 5819 5821 5824 5826 5828 5830 5832 5833 5835 5836 5838 5839 5841 5842 5844 5845 5846 5847 5849 5850 5851 5852 5853 5853 5854 5855 5855 5856 5856 5856 5857
5777 5779 5782 5785 5788 5791 5794 5798 5801 5804 5807 5810 5813 5816 5818 5821 5823 5825 5827 5829 5831 5833 5834 5836 5837 5839 5840 5842 5843 5845 5846 5847 5848 5849 5851 5851 5852 5853 5853 5854 5854 5855 5855
5769 5771 5773 5776 5779 5782 5786 5790 5793 5797 5801 5804 5807 5810 5813 5815 5818 5820 5822 5824 5826 5828 5830 5832 5834 5835 5837 5838 5840 5841 5843 5844 5845 5846 5848 5849 5850 5850 5851 5852 5852 5853 5853
5760 5762 5765 5767 5770 5774 5777 5781 5785 5789 5793 5797 5801 5804 5807 5810 5812 5814 5817 5819 5822 5824 5826 5827 5829 5831 5833 5834 5836 5838 5839 5841 5842 5843 5844 5846 5847 5848 5848 5849 5850 5850 5851
5750 5752 5755 5758 5761 5765 5768 5772 5777 5781 5785 5790 5793 5797 5800 5803 5806 5809 5811 5814 5816 5818 5821 5823 5825 5827 5829 5830 5832 5834 5835 5837 5838 5840 5841 5842 5844 5845 5846 5846 5847 5848 5848
5740 5742 5745 5748 5752 5755 5759 5763 5768 5772 5777 5781 5785 5789 5793 5796 5800 5802 5805 5808 5810 5813 5815 5817 5819 5822 5823 5826 5827 5829 5831 5833 5835 5836 5837 5839 5840 5841 5842 5843 5844 5845 5846
5729 5731 5734 5737 5741 5745 5749 5753 5758 5763 5767 5772 5776 5780 5785 5788 5792 5795 5798 5801 5803 5806 5808 5811 5814 5816 5818 5820 5822 5824 5826 5828 5830 5832 5834 5835 5836 5838 5839 5840 5841 5842 5843
5717 5720 5723 5726 5730 5734 5739 5743 5748 5753 5758 5763 5767 5772 5776 5780 5784 5788 5791 5794 5796 5799 5802 5804 5807 5810 5812 5814 5816 5818 5820 5823 5825 5827 5829 5831 5832 5833 5835 5836 5837 5838 5839
5706 5709 5711 5715 5719 5724 5728 5733 5738 5743 5748 5753 5757 5762 5766 5771 5775 5779 5783 5786 5789 5791 5794 5797 5800 5803 5805 5807 5810 5812 5814 5817 5819 5822 5824 5826 5827 5829 5830 5832 5833 5834 5835
5696 5698 5701 5704 5708 5712 5717 5722 5728 5733 5738 5742 5748 5752 5757 5761 5765 5770 5774 5777 5779 5783 5786 5789 5792 5795 5797 5800 5802 5805 5808 5810 5813 5815 5818 5820 5822 5824 5825 5827 5828 5829 5831
5686 5688 5690 5693 5697 5701 5706 5711 5717 5722 5727 5732 5738 5742 5747 5751 5755 5760 5764 5768 5771 5774 5777 5780 5784 5786 5789 5792 5795 5797 5800 5803 5806 5809 5811 5814 5816 5818 5820 5821 5823 5824 5826
5676 5679 5681 5684 5687 5691 5695 5700 5706 5712 5717 5722 5727 5732 5737 5741 5745 5750 5754 5758 5761 5765 5768 5771 5775 5778 5781 5784 5787 5789 5792 5796 5799 5801 5804 5806 5809 5811 5813 5815 5817 5819 5820
5666 5669 5672 5675 5678 5681 5685 5689 5694 5700 5706 5711 5716 5721 5726 5730 5735 5740 5743 5748 5752 5755 5759 5762 5765 5769 5772 5775 5778 5781 5784 5787 5790 5793 5796 5799 5802 5804 5806 5808 5810 5812 5813
5656 5659 5662 5665 5668 5671 5674 5678 5683 5688 5694 5699 5704 5710 5715 5719 5724 5728 5733 5737 5741 5746 5749 5753 5756 5759 5762 5765 5768 5771 5775 5778 5781 5784 5788 5791 5794 5796 5799 5801 5803 5805 5806
5646 5648 5651 5654 5657 5660 5663 5667 5671 5676 5681 5687 5692 5698 5703 5708 5713 5718 5722 5727 5731 5735 5739 5743 5746 5749 5752 5756 5759 5762 5765 5768 5771 5775 5778 5782 5785 5788 5791 5793 5795 5797 5799
5635 5637 5640 5643 5646 5649 5652 5655 5659 5664 5669 5674 5680 5685 5691 5697 5702 5707 5711 5716 5720 5724 5728 5732 5735 5739 5742 5746 5749 5752 5755 5759 5762 5765 5769 5772 5776 5780 5782 5784 5787 5789 5791